This is the latest recevied weather packets stored in our database for station/object KD8DNS. If no packets are shown the sender has not sent any weather packets the latest 10 day(s).
| Time | Temp. | Humidity | Pressure | Rain* | Wind** | Luminosity | Snow |
|---|---|---|---|---|---|---|---|
| 1788610329 | 20° C | 99% | 1018.8 hPa | 0 mm | - | 12 W/m² | - |
| 1788610027 | 20° C | 99% | 1018.7 hPa | 0 mm | - | 8 W/m² | - |
| 1788609721 | 20° C | 99% | 1018.7 hPa | 0 mm | - | 6 W/m² | - |
| 1788609416 | 20° C | 99% | 1018.6 hPa | 0 mm | - | 8 W/m² | - |
| 1788609111 | 20° C | 99% | 1018.4 hPa | 0 mm | - | 14 W/m² | - |
| 1788608811 | 20° C | 99% | 1018.5 hPa | 0 mm | - | 22 W/m² | - |
| 1788608509 | 20° C | 99% | 1018.5 hPa | 0 mm | - | 8 W/m² | - |
| 1788608209 | 20° C | 99% | 1018.7 hPa | 0 mm | - | 3 W/m² | - |
| 1788607905 | 20° C | 99% | 1019 hPa | 0 mm | - | 4 W/m² | - |
| 1788607599 | 20° C | 99% | 1018.8 hPa | 0 mm | - | 0 W/m² | - |
| 1788607295 | 20° C | 99% | 1018.9 hPa | 0 mm | - | 0 W/m² | - |
| 1788606995 | 20° C | 99% | 1018.8 hPa | 0 mm | - | 0 W/m² | - |
| 1788606694 | 20° C | 99% | 1019.1 hPa | 0 mm | - | 0 W/m² | - |
| 1788606393 | 20° C | 99% | 1019 hPa | 0 mm | - | 0 W/m² | - |
| 1788606088 | 20° C | 99% | 1018.7 hPa | 0 mm | - | 0 W/m² | - |
| 1788605783 | 20° C | 99% | 1018.8 hPa | 0 mm | - | 0 W/m² | - |
| 1788605482 | 20° C | 99% | 1018.6 hPa | 0 mm | - | 0 W/m² | - |
| 1788605178 | 20° C | 99% | 1018.3 hPa | 0 mm | - | 0 W/m² | - |
| 1788604874 | 20° C | 99% | 1018.1 hPa | 0 mm | - | 0 W/m² | - |
| 1788604569 | 20° C | 99% | 1018.1 hPa | 0 mm | - | 0 W/m² | - |
| 1788604265 | 20° C | 99% | 1017.9 hPa | 0 mm | - | 0 W/m² | - |
| 1788603960 | 20° C | 99% | 1018.1 hPa | 0 mm | - | 0 W/m² | - |
| 1788603657 | 20° C | 99% | 1018 hPa | 0 mm | - | 0 W/m² | - |
| 1788603355 | 20° C | 99% | 1017.7 hPa | 0 mm | - | 0 W/m² | - |
| 1788603053 | 20° C | 99% | 1017.5 hPa | 0 mm | - | 0 W/m² | - |
* Rain latest hour (hover to see other rain measurements)
** Current wind speed in m/s (hover to see current wind gust speed)